Location: Katowice
(50.2611°N, 19.0242°E)
Time: 00:15:19
(UTC+02:00)

Vanguard 2 - All Passes

Search period start: 23 October 2019 00:00
Search period end: 01 November 2019 23:00
Orbit: 554 x 2937 km, 32.9° (Epoch: 22 October)

Date Brightness Start Highest point End Pass type
(mag) Time Alt. Az. Time Alt. Az. Time Alt. Az.
23 Oct - 17:31:03 10° S 17:35:52 18° SSE 17:42:12 10° ESE daylight
23 Oct - 19:36:01 10° SW 19:43:37 31° S 19:54:46 10° ESE visible
23 Oct - 21:43:28 10° WSW 21:52:42 30° SSW 22:05:17 10° SE visible
23 Oct - 23:53:56 10° WSW 00:02:10 18° SSW 00:11:45 10° S visible
24 Oct - 17:47:56 10° SSW 17:53:13 21° SSE 18:00:27 10° ESE daylight
24 Oct - 19:53:38 10° SW 20:01:13 30° S 20:12:20 10° ESE visible
24 Oct - 22:01:33 10° WSW 22:10:21 26° SSW 22:22:04 10° SSE visible
25 Oct - 00:13:55 10° WSW 00:19:40 13° SW 00:26:00 10° SSW visible
25 Oct - 18:05:06 10° SSW 18:10:40 23° SSE 18:18:28 10° ESE visible
25 Oct - 20:11:21 10° WSW 20:18:52 29° S 20:29:45 10° SE visible
25 Oct - 22:19:53 10° WSW 22:28:00 22° SSW 22:38:26 10° SSE visible
26 Oct - 16:19:39 10° SSE 16:21:04 11° SE 16:22:36 10° SE daylight
26 Oct - 18:22:27 10° SW 18:28:10 24° SSE 18:36:18 10° ESE visible
26 Oct - 20:29:12 10° WSW 20:36:32 26° S 20:46:56 10° SE visible
26 Oct - 22:38:39 10° WSW 22:45:38 17° SSW 22:54:11 10° S visible
27 Oct - 15:35:27 10° S 15:38:23 13° SSE 15:41:54 10° SE daylight
27 Oct - 17:39:58 10° SW 17:45:44 25° S 17:53:57 10° SE visible
27 Oct - 19:47:14 10° WSW 19:54:13 23° SSW 20:03:49 10° SSE visible
27 Oct - 21:58:25 10° SW 22:03:14 13° SSW 22:08:45 10° S visible
28 Oct - 15:52:14 10° SSW 15:55:47 16° SSE 16:00:15 10° ESE daylight
28 Oct - 17:57:38 10° SW 18:03:21 24° S 18:11:26 10° SE visible
28 Oct - 20:05:31 10° WSW 20:11:54 20° SSW 20:20:19 10° SSE visible
29 Oct - 16:09:23 10° SSW 16:13:15 17° SSE 16:18:16 10° SE daylight
29 Oct - 18:15:28 10° SW 18:21:00 22° S 18:28:42 10° SE visible
29 Oct - 20:24:15 10° SW 20:29:35 16° SSW 20:36:11 10° S visible
30 Oct - 16:26:47 10° SSW 16:30:48 18° SSE 16:36:03 10° SE daylight
30 Oct - 18:33:28 10° SW 18:38:41 19° S 18:45:41 10° SSE visible
30 Oct - 20:44:15 10° SW 20:47:16 11° SSW 20:50:38 10° S visible
31 Oct - 16:44:23 10° SW 16:48:23 18° S 16:53:36 10° SE visible
31 Oct - 18:51:47 10° SW 18:56:22 16° SSW 19:02:14 10° SSE visible
01 Nov - 14:57:11 10° S 14:58:42 11° SSE 15:00:22 10° SE daylight
01 Nov - 17:02:11 10° SW 17:06:00 17° S 17:10:55 10° SE visible
01 Nov - 19:10:43 10° SW 19:14:04 13° SSW 19:18:01 10° S visible
